2023-039B (55974 NORAD) Tracking and Keplerian Element Data

This shows tracking and keplerian element data for the satellite.

Feedback or suggestion? Click here.




ElementValue
Catalog55974
Name2023-039B
Epoch Orbit684
Epoch Day126.49216484
Epoch Year2023
RAAN276.3447
Inclination97.4154
Eccentricity0.0014798
Argument of Perigee100.4449
Mean Anonmoly300.3181
Mean Motion15.19086294
Decay Rate6.927E-05
L11 55974U 23039B 23126.49216484 .00006927 00000+0 33246-3 0 9993
L22 55974 97.4154 276.3447 0014798 100.4449 300.3181 15.19086294 6845



Live tracking and technical data element details for 2023-039B (NORAD 55974). 2023-039B can be tracked NOW for your location showing map with azimuth and elevation plus other details from your city location.







IsCatalogInMostPopularTable: catalog: 55974, numindb: 8
Update: records affected: 1



GetName: 55974 2023-039B

Hit Count: updated at: Tue, 06 Jun 2023 03:26:16 GMT